﻿_id,日時,平均風速(m/s),平均風向,最大瞬間風速(m/s),最大風速時風向,気温(℃),湿度(%),10分間移動積算雨量(mm),1時間移動積算雨量(mm),日雨量(mm),累計雨量(mm),日射(日積算)(MJ/m2),日照(日積算)(min),現地気圧(hPa),海面気圧(hPa)
1,2022-07-25T00:00:00,4.3,南南西,6.4,南南西,25.5,84.8,0,0,0,0,26.76,555,996.6,1009.9
2,2022-07-25T00:01:00,4.4,南南西,6.4,南南西,25.5,84.9,0,0,0,0,0,0,996.6,1009.9
3,2022-07-25T00:02:00,4.5,南南西,6.7,南南西,25.5,84.9,0,0,0,0,0,0,996.6,1009.9
4,2022-07-25T00:03:00,4.4,南南西,6.7,南南西,25.5,84.8,0,0,0,0,0,0,996.6,1009.9
5,2022-07-25T00:04:00,4.4,南南西,6.7,南南西,25.5,84.8,0,0,0,0,0,0,996.6,1009.9
6,2022-07-25T00:05:00,4.4,南南西,6.7,南南西,25.5,84.7,0,0,0,0,0,0,996.6,1009.9
7,2022-07-25T00:06:00,4.4,南南西,6.7,南南西,25.5,84.8,0,0,0,0,0,0,996.7,1010
8,2022-07-25T00:07:00,4.4,南南西,6.7,南南西,25.5,85,0,0,0,0,0,0,996.7,1010
9,2022-07-25T00:08:00,4.3,南南西,6.7,南南西,25.5,85.1,0,0,0,0,0,0,996.7,1010
10,2022-07-25T00:09:00,4.4,南南西,6.7,南南西,25.5,85.1,0,0,0,0,0,0,996.6,1009.9
11,2022-07-25T00:10:00,4.3,南南西,6.7,南南西,25.5,85,0,0,0,0,0,0,996.6,1009.9
12,2022-07-25T00:11:00,4.2,南南西,6.7,南南西,25.5,85.1,0,0,0,0,0,0,996.6,1009.9
13,2022-07-25T00:12:00,4,南南西,5.8,南,25.5,85.2,0,0,0,0,0,0,996.6,1009.9
14,2022-07-25T00:13:00,4,南南西,5.8,南,25.5,85.3,0,0,0,0,0,0,996.7,1010
15,2022-07-25T00:14:00,4,南南西,5.9,南南西,25.4,85.3,0,0,0,0,0,0,996.7,1010
16,2022-07-25T00:15:00,4,南南西,6.1,南南西,25.4,85.3,0,0,0,0,0,0,996.7,1010
17,2022-07-25T00:16:00,4,南南西,6.1,南南西,25.4,85.5,0,0,0,0,0,0,996.7,1010
18,2022-07-25T00:17:00,4.2,南南西,6.1,南南西,25.5,85.6,0,0,0,0,0,0,996.7,1010
19,2022-07-25T00:18:00,4.2,南南西,6.1,南南西,25.5,85.7,0,0,0,0,0,0,996.7,1010
20,2022-07-25T00:19:00,4.2,南南西,6.1,南南西,25.5,85.8,0,0,0,0,0,0,996.6,1009.9
21,2022-07-25T00:20:00,4.3,南南西,6.1,南南西,25.5,85.7,0,0,0,0,0,0,996.7,1010
22,2022-07-25T00:21:00,4.3,南南西,6.1,南南西,25.5,85.8,0,0,0,0,0,0,996.7,1010
23,2022-07-25T00:22:00,4.2,南南西,6.1,南南西,25.5,85.7,0,0,0,0,0,0,996.6,1009.9
24,2022-07-25T00:23:00,4.2,南南西,6.1,南南西,25.4,85.7,0,0,0,0,0,0,996.6,1009.9
25,2022-07-25T00:24:00,4.3,南南西,6.6,南南西,25.4,85.9,0,0,0,0,0,0,996.6,1009.9
26,2022-07-25T00:25:00,4.2,南南西,6.8,南南西,25.4,86.2,0,0,0,0,0,0,996.6,1009.9
27,2022-07-25T00:26:00,4.2,南南西,6.8,南南西,25.4,86.2,0,0,0,0,0,0,996.7,1010
28,2022-07-25T00:27:00,4.1,南南西,6.8,南南西,25.5,86.4,0,0,0,0,0,0,996.7,1010
29,2022-07-25T00:28:00,4,南南西,6.8,南南西,25.4,86.3,0,0,0,0,0,0,996.7,1010
30,2022-07-25T00:29:00,4,南南西,6.8,南南西,25.4,86.3,0,0,0,0,0,0,996.7,1010
31,2022-07-25T00:30:00,3.9,南南西,6.8,南南西,25.4,86.4,0,0,0,0,0,0,996.8,1010.1
32,2022-07-25T00:31:00,3.9,南南西,6.8,南南西,25.4,86.4,0,0,0,0,0,0,996.8,1010.1
33,2022-07-25T00:32:00,4,南南西,6.8,南南西,25.4,86.4,0,0,0,0,0,0,996.8,1010.1
34,2022-07-25T00:33:00,4.1,南南西,6.8,南南西,25.4,86.4,0,0,0,0,0,0,996.7,1010
35,2022-07-25T00:34:00,3.9,南南西,6.8,南南西,25.4,86.6,0,0,0,0,0,0,996.8,1010.1
36,2022-07-25T00:35:00,4,南南西,6.8,南,25.4,86.6,0,0,0,0,0,0,996.7,1010
37,2022-07-25T00:36:00,3.9,南南西,6.8,南,25.4,86.6,0,0,0,0,0,0,996.7,1010
38,2022-07-25T00:37:00,4,南南西,6.8,南,25.4,86.5,0,0,0,0,0,0,996.8,1010.1
39,2022-07-25T00:38:00,3.9,南南西,6.8,南,25.4,86.4,0,0,0,0,0,0,996.7,1010
40,2022-07-25T00:39:00,4,南南西,6.8,南,25.4,86.4,0,0,0,0,0,0,996.7,1010
41,2022-07-25T00:40:00,4.1,南南西,6.8,南,25.4,86.6,0,0,0,0,0,0,996.7,1010
42,2022-07-25T00:41:00,4.2,南南西,6.8,南,25.4,86.7,0,0,0,0,0,0,996.7,1010
43,2022-07-25T00:42:00,4.2,南南西,6.8,南,25.4,86.9,0,0,0,0,0,0,996.7,1010
44,2022-07-25T00:43:00,4.1,南南西,6.8,南,25.3,86.9,0,0,0,0,0,0,996.7,1010
45,2022-07-25T00:44:00,4,南南西,6.8,南,25.3,87,0,0,0,0,0,0,996.7,1010
46,2022-07-25T00:45:00,3.9,南南西,6.4,南南西,25.3,87.1,0,0,0,0,0,0,996.7,1010
47,2022-07-25T00:46:00,3.9,南南西,6.4,南南西,25.3,87.2,0,0,0,0,0,0,996.7,1010
48,2022-07-25T00:47:00,3.9,南南西,6.4,南南西,25.3,87.2,0,0,0,0,0,0,996.7,1010
49,2022-07-25T00:48:00,3.9,南南西,6.4,南南西,25.3,87.3,0,0,0,0,0,0,996.7,1010
50,2022-07-25T00:49:00,3.8,南南西,6.1,南南西,25.3,87.3,0,0,0,0,0,0,996.7,1010
51,2022-07-25T00:50:00,3.7,南南西,6.1,南南西,25.3,87.3,0,0,0,0,0,0,996.8,1010.1
52,2022-07-25T00:51:00,3.5,南南西,5.7,南南西,25.4,87.2,0,0,0,0,0,0,996.8,1010.1
53,2022-07-25T00:52:00,3.4,南南西,5.4,南南西,25.3,87.1,0,0,0,0,0,0,996.8,1010.1
54,2022-07-25T00:53:00,3.4,南南西,5.4,南南西,25.3,87.1,0,0,0,0,0,0,996.8,1010.1
55,2022-07-25T00:54:00,3.5,南南西,5.4,南南西,25.3,87.2,0,0,0,0,0,0,996.7,1010
56,2022-07-25T00:55:00,3.5,南南西,5.4,南南西,25.3,87.3,0,0,0,0,0,0,996.8,1010.1
57,2022-07-25T00:56:00,3.5,南南西,5.4,南南西,25.4,87.4,0,0,0,0,0,0,996.8,1010.1
58,2022-07-25T00:57:00,3.5,南南西,5.4,南南西,25.3,87.2,0,0,0,0,0,0,996.8,1010.1
59,2022-07-25T00:58:00,3.3,南南西,5.4,南南西,25.3,87.2,0,0,0,0,0,0,996.8,1010.1
60,2022-07-25T00:59:00,3.1,南南西,5.4,南南西,25.3,87.4,0,0,0,0,0,0,996.7,1010
61,2022-07-25T01:00:00,3,南南西,5.4,南南西,25.3,87.6,0,0,0,0,0,0,996.7,1010
62,2022-07-25T01:01:00,3,南南西,4.8,南南西,25.2,87.6,0,0,0,0,0,0,996.7,1010
63,2022-07-25T01:02:00,2.9,南,4.8,南南西,25.2,87.8,0,0,0,0,0,0,996.7,1010
64,2022-07-25T01:03:00,2.7,南,4.8,南南西,25.2,88,0,0,0,0,0,0,996.7,1010
65,2022-07-25T01:04:00,2.6,南,4.4,南南西,25.2,88.1,0,0,0,0,0,0,996.7,1010
66,2022-07-25T01:05:00,2.4,南,4.3,南,25.2,88.1,0,0,0,0,0,0,996.7,1010
67,2022-07-25T01:06:00,2.4,南,4.3,南,25.3,88.1,0,0,0,0,0,0,996.7,1010
68,2022-07-25T01:07:00,2.3,南,3.6,南,25.3,88,0,0,0,0,0,0,996.7,1010
69,2022-07-25T01:08:00,2.2,南,3.6,南,25.3,88,0,0,0,0,0,0,996.7,1010
70,2022-07-25T01:09:00,2.2,南南西,3.6,南,25.3,87.8,0,0,0,0,0,0,996.7,1010
71,2022-07-25T01:10:00,2.1,南南西,3.6,南,25.3,87.9,0,0,0,0,0,0,996.7,1010
72,2022-07-25T01:11:00,2.1,南南西,3.7,南,25.2,87.8,0,0,0,0,0,0,996.6,1009.9
73,2022-07-25T01:12:00,2.2,南南西,3.9,南,25.2,87.9,0,0,0,0,0,0,996.6,1009.9
74,2022-07-25T01:13:00,2.2,南南西,3.9,南,25.2,88.2,0,0,0,0,0,0,996.6,1009.9
75,2022-07-25T01:14:00,2.2,南南西,3.9,南,25.2,88.3,0,0,0,0,0,0,996.6,1009.9
76,2022-07-25T01:15:00,2.2,南南西,3.9,南,25.2,88.1,0,0,0,0,0,0,996.6,1009.9
77,2022-07-25T01:16:00,2.2,南南西,3.9,南,25.1,88.1,0,0,0,0,0,0,996.7,1010
78,2022-07-25T01:17:00,2.3,南南西,3.9,南,25.1,88.2,0,0,0,0,0,0,996.7,1010
79,2022-07-25T01:18:00,2.4,南南西,3.9,南,25.1,88.4,0,0,0,0,0,0,996.7,1010
80,2022-07-25T01:19:00,2.5,南,3.9,南,25.1,88.6,0,0,0,0,0,0,996.7,1010
81,2022-07-25T01:20:00,2.6,南,3.9,南,25.1,88.6,0,0,0,0,0,0,996.7,1010
82,2022-07-25T01:21:00,2.5,南南西,3.9,南,25.1,88.6,0,0,0,0,0,0,996.7,1010
83,2022-07-25T01:22:00,2.5,南南西,3.6,南南西,25.2,88.8,0,0,0,0,0,0,996.7,1010
84,2022-07-25T01:23:00,2.6,南南西,3.6,南南西,25.1,88.5,0,0,0,0,0,0,996.7,1010
85,2022-07-25T01:24:00,2.6,南南西,3.6,南南西,25.1,88.4,0,0,0,0,0,0,996.7,1010
86,2022-07-25T01:25:00,2.5,南南西,3.6,南南西,25.3,88.6,0,0,0,0,0,0,996.6,1009.9
87,2022-07-25T01:26:00,2.5,南南西,3.6,南南西,25.3,88.4,0,0,0,0,0,0,996.6,1009.9
88,2022-07-25T01:27:00,2.6,南南西,3.9,南,25.3,88.1,0,0,0,0,0,0,996.6,1009.9
89,2022-07-25T01:28:00,2.6,南南西,4.3,南南西,25.3,88,0,0,0,0,0,0,996.6,1009.9
90,2022-07-25T01:29:00,2.7,南南西,4.9,南,25.2,87.8,0,0,0,0,0,0,996.6,1009.9
91,2022-07-25T01:30:00,2.7,南南西,4.9,南,25.2,87.9,0,0,0,0,0,0,996.6,1009.9
92,2022-07-25T01:31:00,2.7,南南西,4.9,南,25.2,88,0,0,0,0,0,0,996.6,1009.9
93,2022-07-25T01:32:00,2.7,南南西,4.9,南,25.2,87.9,0,0,0,0,0,0,996.6,1009.9
94,2022-07-25T01:33:00,2.8,南南西,4.9,南,25.1,87.9,0,0,0,0,0,0,996.7,1010
95,2022-07-25T01:34:00,2.9,南南西,4.9,南,25.1,88,0,0,0,0,0,0,996.6,1009.9
96,2022-07-25T01:35:00,3,南南西,4.9,南,25.1,88.2,0,0,0,0,0,0,996.7,1010
97,2022-07-25T01:36:00,3.1,南南西,4.9,南,25,88.4,0,0,0,0,0,0,996.7,1010
98,2022-07-25T01:37:00,3.2,南南西,5.1,南南西,25.1,88.6,0,0,0,0,0,0,996.6,1009.9
99,2022-07-25T01:38:00,3.2,南南西,5.1,南南西,25.1,88.7,0,0,0,0,0,0,996.6,1009.9
100,2022-07-25T01:39:00,3.2,南南西,5.1,南南西,25.1,88.8,0,0,0,0,0,0,996.6,1009.9
101,2022-07-25T01:40:00,3.3,南南西,5.1,南南西,25,88.7,0,0,0,0,0,0,996.6,1009.9
102,2022-07-25T01:41:00,3.3,南南西,5.1,南南西,25.1,88.8,0,0,0,0,0,0,996.6,1009.9
103,2022-07-25T01:42:00,3.5,南南西,5.5,南,25.1,88.8,0,0,0,0,0,0,996.6,1009.9
104,2022-07-25T01:43:00,3.5,南南西,5.5,南,25.1,88.7,0,0,0,0,0,0,996.6,1009.9
105,2022-07-25T01:44:00,3.5,南南西,5.5,南,25.1,88.6,0,0,0,0,0,0,996.7,1010
106,2022-07-25T01:45:00,3.4,南南西,5.5,南,25.1,88.5,0,0,0,0,0,0,996.7,1010
107,2022-07-25T01:46:00,3.4,南南西,5.5,南,25.1,88.5,0,0,0,0,0,0,996.6,1009.9
108,2022-07-25T01:47:00,3.5,南南西,5.5,南,25.1,88.8,0,0,0,0,0,0,996.7,1010
109,2022-07-25T01:48:00,3.4,南南西,5.5,南,25.1,88.7,0,0,0,0,0,0,996.6,1009.9
110,2022-07-25T01:49:00,3.5,南南西,5.5,南,25.1,88.6,0,0,0,0,0,0,996.6,1009.9
111,2022-07-25T01:50:00,3.5,南南西,5.5,南,25.1,88.7,0,0,0,0,0,0,996.6,1009.9
112,2022-07-25T01:51:00,3.4,南南西,5.5,南,25.1,88.9,0,0,0,0,0,0,996.6,1009.9
113,2022-07-25T01:52:00,3.2,南南西,5,南南西,25.1,88.8,0,0,0,0,0,0,996.6,1009.9
114,2022-07-25T01:53:00,3.2,南南西,5,南南西,25.1,89,0,0,0,0,0,0,996.6,1009.9
115,2022-07-25T01:54:00,3.1,南南西,5,南南西,25.1,88.9,0,0,0,0,0,0,996.7,1010
116,2022-07-25T01:55:00,3.2,南南西,5,南南西,25.1,88.7,0,0,0,0,0,0,996.7,1010
117,2022-07-25T01:56:00,3.1,南南西,5,南南西,25.1,88.9,0,0,0,0,0,0,996.7,1010
118,2022-07-25T01:57:00,3,南南西,4.6,南南西,25.1,88.7,0,0,0,0,0,0,996.7,1010
119,2022-07-25T01:58:00,3,南南西,4.5,南,25.1,88.8,0,0,0,0,0,0,996.7,1010
120,2022-07-25T01:59:00,2.9,南南西,4.4,南西,25.1,88.8,0,0,0,0,0,0,996.6,1009.9
121,2022-07-25T02:00:00,2.9,南南西,4.4,南西,25.1,88.7,0,0,0,0,0,0,996.6,1009.9
122,2022-07-25T02:01:00,2.9,南南西,4.4,南西,25.1,88.6,0,0,0,0,0,0,996.6,1009.9
123,2022-07-25T02:02:00,2.9,南南西,4.4,南西,25,88.8,0,0,0,0,0,0,996.6,1009.9
124,2022-07-25T02:03:00,3,南南西,4.4,南西,25,89,0,0,0,0,0,0,996.6,1009.9
125,2022-07-25T02:04:00,3.2,南南西,6.3,南,25,89.1,0,0,0,0,0,0,996.6,1009.9
126,2022-07-25T02:05:00,3.3,南南西,6.3,南,25.1,89.3,0,0,0,0,0,0,996.6,1009.9
127,2022-07-25T02:06:00,3.3,南南西,6.3,南,25.1,89.2,0,0,0,0,0,0,996.7,1010
128,2022-07-25T02:07:00,3.4,南南西,6.3,南,25.1,89,0,0,0,0,0,0,996.7,1010
129,2022-07-25T02:08:00,3.4,南南西,6.3,南,25.1,88.9,0,0,0,0,0,0,996.7,1010
130,2022-07-25T02:09:00,3.5,南南西,6.3,南,25.1,88.8,0,0,0,0,0,0,996.6,1009.9
131,2022-07-25T02:10:00,3.5,南南西,6.3,南,25.1,88.9,0,0,0,0,0,0,996.6,1009.9
132,2022-07-25T02:11:00,3.6,南,6.3,南,25.1,89.1,0,0,0,0,0,0,996.7,1010
133,2022-07-25T02:12:00,3.7,南南西,6.3,南,25.2,89.2,0,0,0,0,0,0,996.7,1010
134,2022-07-25T02:13:00,3.8,南南西,6.3,南,25.2,89,0,0,0,0,0,0,996.7,1010
135,2022-07-25T02:14:00,3.7,南南西,6.1,南,25.2,88.7,0,0,0,0,0,0,996.7,1010
136,2022-07-25T02:15:00,3.5,南南西,6.1,南,25.3,88.6,0,0,0,0,0,0,996.7,1010
137,2022-07-25T02:16:00,3.5,南南西,6.1,南,25.3,88.5,0,0,0,0,0,0,996.7,1010
138,2022-07-25T02:17:00,3.4,南南西,6.1,南,25.2,88.3,0,0,0,0,0,0,996.7,1010
139,2022-07-25T02:18:00,3.3,南南西,6.1,南,25.3,88.3,0,0,0,0,0,0,996.7,1010
140,2022-07-25T02:19:00,3.3,南南西,6.1,南,25.2,88.4,0,0,0,0,0,0,996.7,1010
141,2022-07-25T02:20:00,3.2,南南西,6.1,南,25.2,88.4,0,0,0,0,0,0,996.7,1010
142,2022-07-25T02:21:00,3.1,南南西,6.1,南,25.2,88.5,0,0,0,0,0,0,996.7,1010
143,2022-07-25T02:22:00,2.9,南南西,6.1,南,25.3,88.5,0,0,0,0,0,0,996.7,1010
144,2022-07-25T02:23:00,2.9,南南西,4.4,南,25.3,88.5,0,0,0,0,0,0,996.7,1010
145,2022-07-25T02:24:00,2.8,南南西,4.3,南西,25.2,88.5,0,0,0,0,0,0,996.7,1010
146,2022-07-25T02:25:00,2.8,南南西,4.3,南西,25.2,88.5,0,0,0,0,0,0,996.7,1010
147,2022-07-25T02:26:00,2.7,南南西,4.3,南西,25.2,88.6,0,0,0,0,0,0,996.7,1010
148,2022-07-25T02:27:00,2.8,南南西,4.3,南西,25.2,88.7,0,0,0,0,0,0,996.7,1010
149,2022-07-25T02:28:00,2.9,南南西,4.5,南南西,25.2,88.9,0,0,0,0,0,0,996.7,1010
150,2022-07-25T02:29:00,2.8,南南西,4.5,南南西,25.2,88.9,0,0,0,0,0,0,996.7,1010
151,2022-07-25T02:30:00,2.8,南南西,4.5,南南西,25.2,89,0,0,0,0,0,0,996.7,1010
152,2022-07-25T02:31:00,2.8,南南西,4.5,南南西,25.2,88.9,0,0,0,0,0,0,996.7,1010
153,2022-07-25T02:32:00,3,南南西,4.5,南南西,25.2,89,0,0,0,0,0,0,996.7,1010
154,2022-07-25T02:33:00,2.9,南南西,4.5,南南西,25.2,89.1,0,0,0,0,0,0,996.7,1010
155,2022-07-25T02:34:00,3,南南西,4.5,南南西,25.2,89,0,0,0,0,0,0,996.7,1010
156,2022-07-25T02:35:00,3,南南西,4.5,南南西,25.2,88.8,0,0,0,0,0,0,996.7,1010
157,2022-07-25T02:36:00,3,南南西,4.7,南,25.3,88.9,0,0,0,0,0,0,996.7,1010
158,2022-07-25T02:37:00,2.9,南南西,4.7,南,25.3,88.8,0,0,0,0,0,0,996.7,1010
159,2022-07-25T02:38:00,2.9,南南西,4.7,南,25.3,88.6,0,0,0,0,0,0,996.7,1010
160,2022-07-25T02:39:00,2.8,南南西,4.7,南,25.3,88.4,0,0,0,0,0,0,996.7,1010
161,2022-07-25T02:40:00,2.9,南南西,4.7,南,25.3,88.3,0,0,0,0,0,0,996.7,1010
162,2022-07-25T02:41:00,2.8,南南西,4.7,南,25.3,88.6,0,0,0,0,0,0,996.7,1010
163,2022-07-25T02:42:00,2.7,南南西,4.7,南,25.3,88.7,0,0,0,0,0,0,996.7,1010
164,2022-07-25T02:43:00,2.7,南南西,4.7,南,25.3,88.5,0,0,0,0,0,0,996.7,1010
165,2022-07-25T02:44:00,2.5,南南西,4.7,南,25.3,88.5,0,0,0,0,0,0,996.7,1010
166,2022-07-25T02:45:00,2.5,南南西,4.7,南,25.3,88.6,0,0,0,0,0,0,996.7,1010
167,2022-07-25T02:46:00,2.5,南南西,4,南,25.3,88.7,0,0,0,0,0,0,996.7,1010
168,2022-07-25T02:47:00,2.5,南南西,4,南,25.4,88.8,0,0,0,0,0,0,996.7,1010
169,2022-07-25T02:48:00,2.6,南南西,4.5,南南西,25.4,88.6,0,0,0,0,0,0,996.7,1010
170,2022-07-25T02:49:00,2.6,南南西,4.5,南南西,25.4,88.4,0,0,0,0,0,0,996.7,1010
171,2022-07-25T02:50:00,2.6,南南西,4.5,南南西,25.4,88.2,0,0,0,0,0,0,996.7,1010
172,2022-07-25T02:51:00,2.6,南南西,4.5,南南西,25.4,88.1,0,0,0,0,0,0,996.8,1010.1
173,2022-07-25T02:52:00,2.6,南南西,4.5,南南西,25.4,88.1,0,0,0,0,0,0,996.8,1010.1
174,2022-07-25T02:53:00,2.6,南南西,4.5,南南西,25.3,88,0,0,0,0,0,0,996.8,1010.1
175,2022-07-25T02:54:00,2.7,南南西,4.5,南南西,25.3,88.1,0,0,0,0,0,0,996.8,1010.1
176,2022-07-25T02:55:00,2.7,南南西,4.5,南南西,25.3,88.3,0,0,0,0,0,0,996.8,1010.1
177,2022-07-25T02:56:00,2.6,南南西,4.5,南南西,25.3,88.4,0,0,0,0,0,0,996.8,1010.1
178,2022-07-25T02:57:00,2.6,南南西,4.5,南南西,25.3,88.6,0,0,0,0,0,0,996.8,1010.1
179,2022-07-25T02:58:00,2.4,南南西,4.4,南南西,25.3,88.7,0,0,0,0,0,0,996.8,1010.1
180,2022-07-25T02:59:00,2.3,南南西,4.4,南南西,25.3,88.6,0,0,0,0,0,0,996.8,1010.1
181,2022-07-25T03:00:00,2.2,南南西,4.4,南南西,25.3,88.5,0,0,0,0,0,0,996.8,1010.1
182,2022-07-25T03:01:00,2.3,南南西,4.4,南南西,25.3,88.5,0,0,0,0,0,0,996.8,1010.1
183,2022-07-25T03:02:00,2.3,南南西,4.4,南南西,25.3,88.6,0,0,0,0,0,0,996.9,1010.2
184,2022-07-25T03:03:00,2.3,南南西,4.4,南南西,25.3,88.8,0,0,0,0,0,0,996.9,1010.2
185,2022-07-25T03:04:00,2.3,南南西,4.3,南南西,25.3,88.8,0,0,0,0,0,0,996.9,1010.2
186,2022-07-25T03:05:00,2.3,南南西,4.3,南南西,25.3,88.9,0,0,0,0,0,0,996.9,1010.2
187,2022-07-25T03:06:00,2.4,南南西,4.3,南南西,25.3,88.7,0,0,0,0,0,0,996.9,1010.2
188,2022-07-25T03:07:00,2.4,南南西,4.3,南南西,25.3,88.8,0,0,0,0,0,0,996.9,1010.2
189,2022-07-25T03:08:00,2.4,南南西,4.3,南南西,25.3,89,0,0,0,0,0,0,996.9,1010.2
190,2022-07-25T03:09:00,2.5,南南西,4.3,南南西,25.3,88.9,0,0,0,0,0,0,996.9,1010.2
191,2022-07-25T03:10:00,2.7,南南西,4.3,南南西,25.3,88.6,0,0,0,0,0,0,996.9,1010.2
192,2022-07-25T03:11:00,2.6,南南西,4.3,南南西,25.4,88.5,0,0,0,0,0,0,996.9,1010.2
193,2022-07-25T03:12:00,2.7,南南西,4.3,南南西,25.3,88.3,0,0,0,0,0,0,996.9,1010.2
194,2022-07-25T03:13:00,2.6,南南西,4.3,南南西,25.3,88.1,0,0,0,0,0,0,996.9,1010.2
195,2022-07-25T03:14:00,2.6,南南西,4.3,南南西,25.3,88.2,0,0,0,0,0,0,996.9,1010.2
196,2022-07-25T03:15:00,2.6,南南西,4.3,南南西,25.3,88.3,0,0,0,0,0,0,996.9,1010.2
197,2022-07-25T03:16:00,2.5,南南西,4.3,南南西,25.3,88.4,0,0,0,0,0,0,996.9,1010.2
198,2022-07-25T03:17:00,2.5,南南西,4.3,南南西,25.3,88.2,0,0,0,0,0,0,996.9,1010.2
199,2022-07-25T03:18:00,2.6,南南西,4.3,南南西,25.3,88.4,0,0,0,0,0,0,996.9,1010.2
200,2022-07-25T03:19:00,2.6,南南西,4.3,南南西,25.3,88.5,0,0,0,0,0,0,996.9,1010.2
201,2022-07-25T03:20:00,2.5,南南西,3.8,南,25.3,88.7,0,0,0,0,0,0,996.9,1010.2
202,2022-07-25T03:21:00,2.5,南南西,3.8,南南西,25.3,88.6,0,0,0,0,0,0,996.9,1010.2
203,2022-07-25T03:22:00,2.5,南南西,3.9,南南西,25.3,88.5,0,0,0,0,0,0,996.9,1010.2
204,2022-07-25T03:23:00,2.5,南南西,3.9,南南西,25.3,88.7,0,0,0,0,0,0,997,1010.3
205,2022-07-25T03:24:00,2.5,南南西,3.9,南南西,25.3,88.6,0,0,0,0,0,0,996.9,1010.2
206,2022-07-25T03:25:00,2.5,南南西,4.1,南,25.3,88.6,0,0,0,0,0,0,996.9,1010.2
207,2022-07-25T03:26:00,2.6,南南西,4.1,南,25.3,88.4,0,0,0,0,0,0,996.9,1010.2
208,2022-07-25T03:27:00,2.6,南,4.1,南,25.3,88.4,0,0,0,0,0,0,996.9,1010.2
209,2022-07-25T03:28:00,2.5,南南西,4.1,南,25.3,88.5,0,0,0,0,0,0,996.9,1010.2
210,2022-07-25T03:29:00,2.4,南南西,4.1,南,25.4,88.5,0,0,0,0,0,0,996.9,1010.2
211,2022-07-25T03:30:00,2.4,南,4.1,南,25.3,88.3,0,0,0,0,0,0,996.9,1010.2
212,2022-07-25T03:31:00,2.3,南,4.1,南,25.3,88.2,0,0,0,0,0,0,996.9,1010.2
213,2022-07-25T03:32:00,2.2,南南西,4.1,南,25.4,88.6,0,0,0,0,0,0,996.9,1010.2
214,2022-07-25T03:33:00,2.2,南南西,4.1,南,25.4,88.3,0,0,0,0,0,0,996.9,1010.2
215,2022-07-25T03:34:00,2.2,南南西,4.1,南,25.4,88,0,0,0,0,0,0,996.9,1010.2
216,2022-07-25T03:35:00,2.2,南南西,4.7,南,25.3,88,0,0,0,0,0,0,996.9,1010.2
217,2022-07-25T03:36:00,2.2,南南西,4.7,南,25.3,88,0,0,0,0,0,0,996.9,1010.2
218,2022-07-25T03:37:00,2.3,南南西,4.7,南,25.3,88.1,0,0,0,0,0,0,997,1010.3
219,2022-07-25T03:38:00,2.4,南南西,4.7,南,25.3,88.2,0,0,0,0,0,0,996.9,1010.2
220,2022-07-25T03:39:00,2.5,南南西,4.7,南,25.3,88.3,0,0,0,0,0,0,996.9,1010.2
221,2022-07-25T03:40:00,2.6,南南西,4.9,南,25.3,88.4,0,0,0,0,0,0,996.9,1010.2
222,2022-07-25T03:41:00,2.8,南南西,4.9,南,25.3,88.3,0,0,0,0,0,0,996.9,1010.2
223,2022-07-25T03:42:00,2.9,南南西,4.9,南,25.3,88.3,0,0,0,0,0,0,996.9,1010.2
224,2022-07-25T03:43:00,2.9,南南西,4.9,南,25.3,88.4,0,0,0,0,0,0,996.9,1010.2
225,2022-07-25T03:44:00,2.9,南南西,4.9,南,25.3,88.5,0,0,0,0,0,0,996.9,1010.2
226,2022-07-25T03:45:00,2.9,南南西,4.9,南,25.3,88.3,0,0,0,0,0,0,996.9,1010.2
227,2022-07-25T03:46:00,2.9,南南西,4.9,南,25.3,88.4,0,0,0,0,0,0,996.9,1010.2
228,2022-07-25T03:47:00,3,南南西,4.9,南,25.3,88.5,0,0,0,0,0,0,996.9,1010.2
229,2022-07-25T03:48:00,3.1,南南西,5.1,南,25.2,88.5,0,0,0,0,0,0,996.9,1010.2
230,2022-07-25T03:49:00,3.1,南南西,5.1,南,25.3,88.7,0,0,0,0,0,0,996.9,1010.2
231,2022-07-25T03:50:00,3,南南西,5.1,南,25.2,88.7,0,0,0,0,0,0,996.9,1010.2
232,2022-07-25T03:51:00,3.1,南南西,5.1,南,25.3,88.7,0,0,0,0,0,0,996.9,1010.2
233,2022-07-25T03:52:00,3.2,南南西,5.1,南,25.3,88.8,0,0,0,0,0,0,996.9,1010.2
234,2022-07-25T03:53:00,3.3,南南西,5.1,南,25.3,88.7,0,0,0,0,0,0,996.9,1010.2
235,2022-07-25T03:54:00,3.4,南南西,5.1,南,25.3,88.6,0,0,0,0,0,0,997,1010.3
236,2022-07-25T03:55:00,3.4,南南西,5.1,南,25.3,88.5,0,0,0,0,0,0,997,1010.3
237,2022-07-25T03:56:00,3.4,南南西,5.1,南,25.3,88.5,0,0,0,0,0,0,997,1010.3
238,2022-07-25T03:57:00,3.4,南南西,5.1,南,25.3,88.5,0,0,0,0,0,0,996.9,1010.2
239,2022-07-25T03:58:00,3.3,南南西,5.1,南南西,25.3,88.3,0,0,0,0,0,0,997,1010.3
240,2022-07-25T03:59:00,3.3,南南西,5.1,南南西,25.3,88.2,0,0,0,0,0,0,997,1010.3
241,2022-07-25T04:00:00,3.3,南南西,5.1,南南西,25.3,88.3,0,0,0,0,0,0,997,1010.3
242,2022-07-25T04:01:00,3.2,南南西,5.1,南南西,25.3,88.4,0,0,0,0,0,0,997,1010.3
243,2022-07-25T04:02:00,3.1,南南西,5,南,25.3,88.5,0,0,0,0,0,0,997,1010.3
244,2022-07-25T04:03:00,3.1,南南西,5,南,25.3,88.3,0,0,0,0,0,0,997,1010.3
245,2022-07-25T04:04:00,3.1,南南西,5.1,南南西,25.3,88.3,0,0,0,0,0,0,997,1010.3
246,2022-07-25T04:05:00,3.1,南南西,5.1,南南西,25.3,88.4,0,0,0,0,0,0,997,1010.3
247,2022-07-25T04:06:00,3.2,南南西,5.1,南南西,25.3,88.5,0,0,0,0,0,0,997,1010.3
248,2022-07-25T04:07:00,3.1,南南西,5.1,南南西,25.3,88.5,0,0,0,0,0,0,997,1010.3
249,2022-07-25T04:08:00,3.1,南南西,5.1,南南西,25.3,88.5,0,0,0,0,0,0,997,1010.3
250,2022-07-25T04:09:00,3,南南西,5.1,南南西,25.2,88.6,0,0,0,0,0,0,997,1010.3
251,2022-07-25T04:10:00,2.9,南南西,5.1,南南西,25.3,88.7,0,0,0,0,0,0,997,1010.3
252,2022-07-25T04:11:00,2.8,南南西,5.1,南南西,25.3,88.8,0,0,0,0,0,0,997,1010.3
253,2022-07-25T04:12:00,2.8,南南西,5.1,南南西,25.3,88.7,0,0,0,0,0,0,997,1010.3
254,2022-07-25T04:13:00,2.8,南南西,5.1,南南西,25.2,88.5,0,0,0,0,0,0,997,1010.3
255,2022-07-25T04:14:00,2.7,南南西,4.6,南南西,25.3,88.6,0,0,0,0,0,0,997,1010.3
256,2022-07-25T04:15:00,2.6,南南西,4.6,南南西,25.3,88.7,0,0,0,0,0,0,997,1010.3
257,2022-07-25T04:16:00,2.5,南南西,4.6,南南西,25.2,88.7,0,0,0,0,0,0,997,1010.3
258,2022-07-25T04:17:00,2.6,南南西,4.6,南南西,25.3,88.7,0,0,0,0,0,0,997.1,1010.4
259,2022-07-25T04:18:00,2.5,南南西,4.6,南南西,25.3,88.8,0,0,0,0,0,0,997.1,1010.4
260,2022-07-25T04:19:00,2.6,南南西,4.6,南南西,25.3,88.7,0,0,0,0,0,0,997.1,1010.4
261,2022-07-25T04:20:00,2.7,南南西,4.6,南南西,25.2,88.6,0,0,0,0,0,0,997.1,1010.4
262,2022-07-25T04:21:00,2.8,南南西,4.6,南南西,25.3,88.7,0,0,0,0,0,0,997.1,1010.4
263,2022-07-25T04:22:00,2.9,南南西,4.6,南南西,25.2,88.6,0,0,0,0,0,0,997.1,1010.4
264,2022-07-25T04:23:00,2.9,南南西,4.5,南南西,25.3,88.7,0,0,0,0,0,0,997.1,1010.4
265,2022-07-25T04:24:00,2.9,南南西,4.5,南南西,25.2,88.6,0,0,0,0,0,0,997.1,1010.4
266,2022-07-25T04:25:00,3,南南西,4.5,南南西,25.3,88.6,0,0,0,0,0,0,997.1,1010.4
267,2022-07-25T04:26:00,3,南南西,4.5,南南西,25.3,88.6,0,0,0,0,0,0,997.1,1010.4
268,2022-07-25T04:27:00,3,南南西,4.4,南南西,25.3,88.6,0,0,0,0,0,0,997.1,1010.4
269,2022-07-25T04:28:00,3.1,南南西,4.4,南南西,25.3,88.4,0,0,0,0,0,0,997.1,1010.4
270,2022-07-25T04:29:00,3,南南西,4.5,南南西,25.3,88.2,0,0,0,0,0,0,997.1,1010.4
271,2022-07-25T04:30:00,3,南南西,4.5,南南西,25.3,88.3,0,0,0,0,0,0,997.1,1010.4
272,2022-07-25T04:31:00,3.1,南南西,4.5,南南西,25.3,88.5,0,0,0,0,0,0,997.1,1010.4
273,2022-07-25T04:32:00,3,南南西,4.7,南,25.2,88.5,0,0,0,0,0,0,997.1,1010.4
274,2022-07-25T04:33:00,3,南南西,4.7,南,25.2,88.6,0,0,0,0,0,0,997.1,1010.4
275,2022-07-25T04:34:00,2.9,南南西,4.7,南,25.2,88.8,0,0,0,0,0,0,997.1,1010.4
276,2022-07-25T04:35:00,2.8,南南西,4.7,南,25.2,88.9,0,0,0,0,0,0,997.1,1010.4
277,2022-07-25T04:36:00,2.8,南南西,4.7,南,25.3,88.8,0,0,0,0,0,0,997.1,1010.4
278,2022-07-25T04:37:00,2.8,南南西,4.7,南,25.3,88.7,0,0,0,0,0,0,997.1,1010.4
279,2022-07-25T04:38:00,2.7,南南西,4.7,南,25.2,88.5,0,0,0,0,0,0,997.1,1010.4
280,2022-07-25T04:39:00,2.6,南南西,4.7,南,25.2,88.6,0,0,0,0,0,0,997.1,1010.4
281,2022-07-25T04:40:00,2.6,南南西,4.7,南,25.2,88.7,0,0,0,0,0,0,997.1,1010.4
282,2022-07-25T04:41:00,2.5,南南西,4.7,南,25.3,88.8,0,0,0,0,0,0,997.1,1010.4
283,2022-07-25T04:42:00,2.4,南南西,3.7,南南西,25.2,88.7,0,0,0,0,0,0,997.1,1010.4
284,2022-07-25T04:43:00,2.3,南南西,3.7,南南西,25.2,88.7,0,0,0,0,0,0,997.1,1010.4
285,2022-07-25T04:44:00,2.3,南南西,3.7,南南西,25.2,88.6,0,0,0,0,0,0,997.1,1010.4
286,2022-07-25T04:45:00,2.4,南南西,4,南南西,25.3,88.7,0,0,0,0,0,0,997.1,1010.4
287,2022-07-25T04:46:00,2.4,南南西,4,南南西,25.3,88.6,0,0,0,0,0,0,997.2,1010.5
288,2022-07-25T04:47:00,2.3,南南西,4,南南西,25.3,88.5,0,0,0,0,0,0,997.2,1010.5
289,2022-07-25T04:48:00,2.3,南南西,4,南南西,25.3,88.3,0,0,0,0,0,0,997.2,1010.5
290,2022-07-25T04:49:00,2.3,南南西,4,南南西,25.3,88.2,0,0,0,0,0,0,997.2,1010.5
291,2022-07-25T04:50:00,2.2,南南西,4,南南西,25.3,88.2,0,0,0,0,0,0,997.2,1010.5
292,2022-07-25T04:51:00,2.1,南南西,4,南南西,25.3,88.2,0,0,0,0,0,0,997.2,1010.5
293,2022-07-25T04:52:00,2.1,南南西,4,南南西,25.3,88.3,0,0,0,0,0,0,997.2,1010.5
294,2022-07-25T04:53:00,2.2,南南西,4,南南西,25.2,88.3,0,0,0,0,0,0,997.2,1010.5
295,2022-07-25T04:54:00,2.2,南南西,4,南南西,25.2,88.4,0,0,0,0,0,0,997.2,1010.5
296,2022-07-25T04:55:00,2.2,南南西,4,南,25.2,88.6,0,0,0,0,0,0,997.1,1010.4
297,2022-07-25T04:56:00,2.2,南南西,4.2,南,25.2,88.8,0,0,0,0,0,0,997.1,1010.4
298,2022-07-25T04:57:00,2.3,南南西,4.2,南,25.1,88.8,0,0,0,0,0,0,997.1,1010.4
299,2022-07-25T04:58:00,2.5,南,4.6,南,25.1,88.9,0,0,0,0,0,0,997.1,1010.4
300,2022-07-25T04:59:00,2.7,南,5.2,南,25.2,88.9,0,0,0,0,0,0,997.1,1010.4
301,2022-07-25T05:00:00,2.8,南,5.2,南,25.2,88.9,0,0,0,0,0,0,997.1,1010.4
302,2022-07-25T05:01:00,2.9,南,5.2,南,25.2,89,0,0,0,0,0,0,997.1,1010.4
303,2022-07-25T05:02:00,3,南,5.2,南,25.2,89,0,0,0,0,0,0,997.1,1010.4
304,2022-07-25T05:03:00,2.9,南,5.2,南,25.2,89,0,0,0,0,0,0,997.1,1010.4
305,2022-07-25T05:04:00,3,南,5.2,南,25.2,88.8,0,0,0,0,0,0,997.1,1010.4
306,2022-07-25T05:05:00,3,南,5.2,南,25.2,88.7,0,0,0,0,0,0,997.2,1010.5
307,2022-07-25T05:06:00,3.1,南,5.2,南,25.2,88.7,0,0,0,0,0,0,997.2,1010.5
308,2022-07-25T05:07:00,3,南,5.2,南,25.2,88.8,0,0,0,0,0,0,997.2,1010.5
309,2022-07-25T05:08:00,2.9,南南西,5.2,南,25.3,88.8,0,0,0,0,0,0,997.2,1010.5
310,2022-07-25T05:09:00,2.7,南南西,4.6,南南西,25.2,88.7,0,0,0,0,0,0,997.3,1010.6
311,2022-07-25T05:10:00,2.7,南南西,4.6,南南西,25.2,88.6,0,0,0,0,0,0,997.3,1010.6
312,2022-07-25T05:11:00,2.7,南南西,4.6,南南西,25.1,88.5,0,0,0,0,0,0,997.3,1010.6
313,2022-07-25T05:12:00,2.7,南南西,4.6,南南西,25.1,88.7,0,0,0,0,0,0,997.3,1010.6
314,2022-07-25T05:13:00,2.7,南南西,4.6,南南西,25.1,88.8,0,0,0,0,0,0,997.3,1010.6
315,2022-07-25T05:14:00,2.6,南南西,4.4,南,25.2,89,0,0,0,0,0,0,997.4,1010.7
316,2022-07-25T05:15:00,2.5,南南西,4.4,南,25.2,89,0,0,0,0,0,0,997.4,1010.7
317,2022-07-25T05:16:00,2.4,南南西,4.4,南,25.2,88.8,0,0,0,0,0,0,997.4,1010.7
318,2022-07-25T05:17:00,2.4,南南西,4.4,南,25.2,88.9,0,0,0,0,0,0,997.5,1010.8
319,2022-07-25T05:18:00,2.4,南南西,4.4,南,25.2,88.8,0,0,0,0,0,0,997.5,1010.8
320,2022-07-25T05:19:00,2.4,南南西,4.4,南,25.2,88.8,0,0,0,0,0,0,997.5,1010.8
321,2022-07-25T05:20:00,2.3,南南西,3.7,南南西,25.2,88.7,0,0,0,0,0,0,997.5,1010.8
322,2022-07-25T05:21:00,2.3,南南西,3.7,南南西,25.2,88.9,0,0,0,0,0,0,997.5,1010.8
323,2022-07-25T05:22:00,2.4,南南西,4,南,25.2,88.7,0,0,0,0,0,0,997.5,1010.8
324,2022-07-25T05:23:00,2.5,南南西,4.3,南,25.1,88.6,0,0,0,0,0,0,997.5,1010.8
325,2022-07-25T05:24:00,2.6,南南西,4.3,南,25.1,88.7,0,0,0,0,0.01,0,997.5,1010.8
326,2022-07-25T05:25:00,2.6,南南西,4.3,南,25.1,88.7,0,0,0,0,0.01,0,997.5,1010.8
327,2022-07-25T05:26:00,2.7,南南西,5,南,25.2,88.9,0,0,0,0,0.01,0,997.5,1010.8
328,2022-07-25T05:27:00,2.8,南南西,5,南,25.2,88.9,0,0,0,0,0.01,0,997.5,1010.8
329,2022-07-25T05:28:00,2.8,南南西,5,南,25.2,88.8,0,0,0,0,0.01,0,997.5,1010.8